Flag for Australia Weather past 2 weeks in Albury, New South Wales, Australia

Now
45 °F

Clear.


Feels Like: 45 °F
Forecast: 38 / 61 °F
Wind: No wind

Location: Albury Airport

Current Time: Sep 18, 2014 at 10:40:23 PM

Latest Report: Sep 18, 2014 at 10:00 PM


Visibility: N/A

Pressure: 30.21 "Hg

Humidity: 76%

Dew point: 37 °F

Location of AlburyLocation

Historic Weather in Albury — Graph

°F

Albury temperature yesterday

Maximum temperature yesterday: 61 °F (at 1:00 PM)
Minimum temperature yesterday: 45 °F (at 4:00 AM)
Average temperature yesterday: 52 °F

Past Weeks' High & Low Weather Summary

 TemperatureHumidityPressure
High68 °F (Sep 8, 1:00 PM)100% (Sep 7, 3:00 AM)30.45 "Hg (Sep 7, 3:00 AM)
Low34 °F (Sep 4, 4:00 AM)34% (Sep 6, 5:00 PM)29.62 "Hg (Sep 9, 8:00 PM)
Average52 °F74%30.09 "Hg
* Reported Sep 3 9:00 PM — Sep 18 9:00 PM, Albury, Weather by CustomWeather, © 2014

Note: Actual official high and low records may vary slightly from our data, if they occured in-between our weather recording intervals... More about our weather records

Advertising

Albury weather history for previous 24 hours

 ConditionsComfort  
Time TempWeatherWind HumidityBarometerVisibility
9:00 PM
Sep 18
48 °FClear.3 mph71%30.18 "HgN/A
8:00 PM50 °FClear.9 mph67%30.18 "HgN/A
7:00 PM50 °FClear.13 mph67%30.15 "HgN/A
6:00 PM54 °FPassing clouds.15 mph58%30.15 "Hg5 mi
5:00 PM57 °FScattered clouds.15 mph51%30.12 "Hg6 mi
4:00 PM57 °FScattered clouds.12 mph55%30.12 "HgN/A
3:56 PM57 °FScattered clouds.10 mph55%30.12 "HgN/A
3:00 PM57 °FScattered clouds.14 mph51%30.12 "HgN/A
2:00 PM59 °FMostly cloudy.13 mph51%30.12 "HgN/A
1:00 PM55 °FMostly cloudy.8 mph51%30.12 "HgN/A
12:00 PM55 °FScattered clouds.12 mph59%30.15 "HgN/A
11:00 AM54 °FBroken clouds.12 mph58%30.15 "HgN/A
10:00 AM50 °FSunny.9 mph71%30.18 "HgN/A
9:00 AM48 °FSunny.9 mph76%30.15 "HgN/A
8:00 AM45 °FSunny.9 mph76%30.15 "HgN/A
7:00 AM41 °FSunny.5 mph87%30.15 "HgN/A
6:00 AM39 °FSunny.7 mph87%30.12 "HgN/A
5:03 AM41 °FClear.12 mph81%30.09 "Hg5 mi
4:00 AM41 °FClear.8 mph81%30.09 "HgN/A
3:00 AM43 °FClear.No wind76%30.07 "HgN/A
2:00 AM43 °FClear.7 mph76%30.07 "HgN/A
1:00 AM45 °FClear.8 mph71%30.07 "HgN/A
12:00 AM46 °FClear.12 mph66%30.07 "HgN/A
11:00 PM
Sep 17
48 °FClear.13 mph66%30.07 "HgN/A
10:00 PM50 °FOvercast.13 mph62%30.04 "HgN/A
Weather by CustomWeather, © 2014

See weather overviewHow to use our weather pages